Flag for Switzerland Weather past 2 weeks in Opfikon, Zurich, Switzerland

Now
50 °F

Cool.


Feels Like: 50 °F
Forecast: 43 / 74 °F
Wind: No wind

Location: Zurich Town / Ville.

Current Time: May 7, 2015 at 4:43:32 AM

Latest Report: May 7, 2015 at 4:00 AM


Visibility: N/A

Pressure: 30.16 "Hg

Humidity: 92%

Dew point: 48 °F

Location of OpfikonLocation

Historic Weather in Opfikon — Graph

°F

Opfikon temperature yesterday

Maximum temperature yesterday: 63 °F (at 3:00 PM)
Minimum temperature yesterday: 49 °F (at 8:00 AM)
Average temperature yesterday: 56 °F

Past Weeks' High & Low Weather Summary

 TemperatureHumidityPressure
High72 °F (Apr 22, 4:00 PM)99% (May 1, 11:00 AM)30.35 "Hg (May 1, 11:00 AM)
Low36 °F (Apr 29, 4:00 AM)19% (Apr 22, 7:00 PM)29.41 "Hg (Apr 27, 6:00 PM)
Average55 °F74%29.90 "Hg
* Reported Apr 22 3:00 AM — May 7 3:00 AM, Opfikon, Weather by CustomWeather, © 2015

Note: Actual official high and low records may vary slightly from our data, if they occured in-between our weather recording intervals... More about our weather records

Advertising

Opfikon weather history for previous 24 hours

 ConditionsComfort  
Time TempWeatherWind HumidityBarometerVisibility
3:00 AM
Thu, May 7
51 °FCool.1 mph89%30.15 "HgN/A
2:00 AM53 °FCool.2 mph83%30.15 "HgN/A
1:00 AM53 °FCool.1 mph76%30.14 "HgN/A
10:00 PM
Wed, May 6
56 °FCool.5 mph63%30.08 "HgN/A
9:00 PM57 °FCool.7 mph63%30.05 "HgN/A
8:00 PM59 °FPartly sunny.7 mph61%30.01 "HgN/A
7:00 PM61 °FCool.2 mph63%29.98 "HgN/A
6:00 PM63 °FMild.3 mph58%29.97 "HgN/A
5:00 PM61 °FRefreshingly cool.2 mph58%29.98 "HgN/A
4:00 PM61 °FRefreshingly cool.3 mph54%29.99 "HgN/A
3:00 PM63 °FMild.5 mph57%30.01 "HgN/A
2:00 PM61 °FPartly sunny.2 mph57%30.02 "HgN/A
1:00 PM58 °FRefreshingly cool.3 mph59%30.03 "HgN/A
12:00 PM57 °FCool.3 mph79%30.06 "HgN/A
11:00 AM52 °FCool.8 mph87%30.08 "HgN/A
10:00 AM49 °FCool.6 mph93%30.08 "HgN/A
9:00 AM49 °FCool.6 mph93%30.07 "HgN/A
8:00 AM49 °FCool.2 mph97%30.07 "HgN/A
7:00 AM49 °FCool.3 mph94%30.05 "HgN/A
6:00 AM50 °FCool.6 mph94%30.02 "HgN/A
4:00 AM53 °FCool.1 mph97%29.98 "HgN/A
Weather by CustomWeather, © 2015

See weather overviewHow to use our weather pages